Location: Unspecified
(51.6250°N, 0.8230°E)
Time: 11:33:19
(UTC+01:00)

Cosmos 1674 - Visible Passes

Search period start: 27 June 2017 00:00
Search period end: 07 July 2017 00:00
Orbit: 497 x 524 km, 82.5° (Epoch: 26 June)

Date Brightness Start Highest point End Pass type
(mag) Time Alt. Az. Time Alt. Az. Time Alt. Az.
27 Jun 6.0 23:20:57 10° WNW 23:21:40 10° WNW 23:22:23 10° NW visible
28 Jun 5.7 23:03:16 10° W 23:04:57 13° WNW 23:06:38 10° NW visible
29 Jun 5.6 22:46:01 10° W 22:48:14 15° WNW 22:50:28 10° NNW visible
30 Jun 5.5 22:28:56 10° WSW 22:31:33 18° WNW 22:34:10 10° NNW visible
01 Jul 5.4 22:11:56 10° WSW 22:14:51 21° WNW 22:17:47 10° NNW visible
